Roseau, MN

7:54 AM CST on January 16, 2018 (GMT -0600)
Roseau Municipal-Billberg

Weather History for KROX - November, 2012

Change the Weather History Date:

Wednesday, November 14, 2012

  Actual Average Record
Temperature  
Mean Temperature 24 °F -  
Max Temperature 37 °F 33 °F 59 °F (1953)
Min Temperature 10 °F 17 °F -9 °F (1959)
Degree Days  
Heating Degree Days 42    
Moisture  
Dew Point 21 °F    
Average Humidity 82    
Maximum Humidity 87    
Minimum Humidity 75    
Precipitation  
Precipitation 0.00 in - - ()
Sea Level Pressure  
Sea Level Pressure 30.10 in    
Wind  
Wind Speed 2 mph (South)    
Max Wind Speed 15 mph    
Max Gust Speed 18 mph    
Visibility 8 miles    
Events      
Averages and records for this station are not official NWS values.
T = Trace of Precipitation, MM = Missing Value Source: NWS Daily Summary

Daily Weather History Graph

Daily Weather History Graph

Search for Another Location

Airport or City:

Trip Planner

Search our weather history database for the weather conditions in past years. The results will help you decide how hot, cold, wet, or windy it might be!

Date:

Astronomy

Nov. 14, 2012 Rise Set
Actual Time 7:31 AM CST 4:42 PM CST
Civil Twilight 6:56 AM CST 5:17 PM CST
Nautical Twilight 6:18 AM CST 5:55 PM CST
Astronomical Twilight 5:41 AM CST 6:32 PM CST
Moon 8:26 AM CST (11/14) 5:26 PM CST (11/14)
Length of Visible Light 10h 20m
Length of Day
9h 11m
New Moon, 1% of the Moon is Illuminated
Nov 14
New Moon
Nov 20
First Quarter
Nov 28
Full
Dec 6
Last Quarter
Dec 13
New

Hourly Weather History & Observations

Time (CST) Temp. Windchill Dew Point Humidity Pressure Visibility Wind Dir Wind Speed Gust Speed Precip Events Conditions
12:14 AM 19.4 °F - 15.8 °F 86% 30.23 in 7.0 mi Calm Calm - N/A   Scattered Clouds
12:34 AM 19.4 °F - 15.8 °F 86% 30.22 in 7.0 mi Calm Calm - N/A   Mostly Cloudy
12:54 AM 19.4 °F - 15.8 °F 86% 30.22 in 7.0 mi Calm Calm - N/A   Mostly Cloudy
1:15 AM 19.4 °F - 15.8 °F 86% 30.21 in 7.0 mi Calm Calm - N/A   Overcast
1:34 AM 19.4 °F - 15.8 °F 86% 30.21 in 7.0 mi Calm Calm - N/A   Mostly Cloudy
1:54 AM 19.4 °F - 15.8 °F 86% 30.21 in 7.0 mi Calm Calm - N/A   Mostly Cloudy
2:15 AM 19.4 °F - 15.8 °F 86% 30.21 in 7.0 mi Calm Calm - N/A   Mostly Cloudy
2:34 AM 19.4 °F - 15.8 °F 86% 30.21 in 7.0 mi Calm Calm - N/A   Scattered Clouds
2:54 AM 17.6 °F - 14.0 °F 86% 30.21 in 7.0 mi Calm Calm - N/A   Clear
3:15 AM 17.6 °F - 12.2 °F 79% 30.21 in 7.0 mi Calm Calm - N/A   Clear
3:34 AM 17.6 °F - 12.2 °F 79% 30.21 in 7.0 mi Calm Calm - N/A   Clear
3:54 AM 15.8 °F - 10.4 °F 79% 30.21 in 7.0 mi Calm Calm - N/A   Clear
4:15 AM 15.8 °F - 12.2 °F 86% 30.20 in 7.0 mi Calm Calm - N/A   Clear
4:34 AM 15.8 °F - 10.4 °F 79% 30.21 in 7.0 mi Calm Calm - N/A   Clear
5:15 AM 12.2 °F - 8.6 °F 85% 30.20 in 7.0 mi Calm Calm - N/A   Clear
5:34 AM 14.0 °F - 8.6 °F 79% 30.19 in 7.0 mi Calm Calm - N/A   Clear
5:54 AM 14.0 °F - 8.6 °F 79% 30.19 in 7.0 mi Calm Calm - N/A   Clear
6:14 AM 12.2 °F 6.1 °F 8.6 °F 85% 30.18 in 7.0 mi SE 3.5 mph - N/A   Clear
6:34 AM 12.2 °F - 8.6 °F 85% 30.18 in 7.0 mi Calm Calm - N/A   Clear
6:54 AM 10.4 °F - 6.8 °F 85% 30.18 in 10.0 mi Calm Calm - N/A   Clear
7:14 AM 12.2 °F - 8.6 °F 85% 30.18 in 7.0 mi Calm Calm - N/A   Clear
7:35 AM 12.2 °F - 8.6 °F 85% 30.18 in 7.0 mi Calm Calm - N/A   Clear
7:54 AM 12.2 °F - 8.6 °F 85% 30.17 in 7.0 mi Calm Calm - N/A   Clear
8:14 AM 12.2 °F - 8.6 °F 85% 30.17 in 7.0 mi Calm Calm - N/A   Clear
8:34 AM 14.0 °F - 8.6 °F 79% 30.17 in 7.0 mi Calm Calm - N/A   Clear
8:54 AM 15.8 °F - 10.4 °F 79% 30.16 in 7.0 mi Calm Calm - N/A   Clear
9:14 AM 17.6 °F - 12.2 °F 79% 30.16 in 7.0 mi Calm Calm - N/A   Clear
9:34 AM 19.4 °F - 15.8 °F 86% 30.15 in 7.0 mi Calm Calm - N/A   Clear
9:54 AM 21.2 °F - 17.6 °F 86% 30.15 in 7.0 mi Calm Calm - N/A   Clear
10:14 AM 24.8 °F - 19.4 °F 80% 30.15 in 7.0 mi Calm Calm - N/A   Clear
10:34 AM 26.6 °F - 21.2 °F 80% 30.15 in 7.0 mi Calm Calm - N/A   Clear
10:54 AM 26.6 °F - 23.0 °F 86% 30.14 in 7.0 mi Calm Calm - N/A   Clear
11:14 AM 28.4 °F 24.6 °F 24.8 °F 86% 30.13 in 7.0 mi SE 3.5 mph - N/A   Clear
11:34 AM 30.2 °F 26.7 °F 24.8 °F 80% 30.13 in 10.0 mi SE 3.5 mph - N/A   Clear
11:54 AM 30.2 °F 26.7 °F 26.6 °F 86% 30.12 in 10.0 mi SSE 3.5 mph - N/A   Clear
12:14 PM 32.0 °F 27.5 °F 26.6 °F 80% 30.11 in 10.0 mi South 4.6 mph - N/A   Clear
12:34 PM 33.8 °F 30.8 °F 28.4 °F 81% 30.10 in 10.0 mi South 3.5 mph - N/A   Clear
12:54 PM 33.8 °F 29.6 °F 28.4 °F 81% 30.09 in 10.0 mi South 4.6 mph - N/A   Clear
1:14 PM 33.8 °F 29.6 °F 28.4 °F 81% 30.08 in 10.0 mi South 4.6 mph - N/A   Clear
1:34 PM 35.6 °F 31.7 °F 28.4 °F 75% 30.07 in 10.0 mi South 4.6 mph - N/A   Clear
1:54 PM 35.6 °F 28.6 °F 28.4 °F 75% 30.06 in 10.0 mi South 9.2 mph - N/A   Clear
2:14 PM 35.6 °F 29.2 °F 30.2 °F 81% 30.06 in 10.0 mi SSE 8.1 mph - N/A   Clear
2:34 PM 35.6 °F 29.9 °F 30.2 °F 81% 30.05 in 10.0 mi South 6.9 mph - N/A   Clear
2:54 PM 35.6 °F 29.2 °F 30.2 °F 81% 30.05 in 10.0 mi South 8.1 mph - N/A   Clear
3:14 PM 35.6 °F 29.9 °F 30.2 °F 81% 30.04 in 10.0 mi South 6.9 mph - N/A   Clear
3:34 PM 35.6 °F 29.2 °F 30.2 °F 81% 30.04 in 10.0 mi South 8.1 mph - N/A   Clear
3:55 PM 35.6 °F 30.7 °F 30.2 °F 81% 30.03 in 10.0 mi South 5.8 mph - N/A   Clear
4:14 PM 35.6 °F 30.7 °F 30.2 °F 81% 30.03 in 10.0 mi SSE 5.8 mph - N/A   Clear
4:34 PM 33.8 °F 27.7 °F 28.4 °F 81% 30.02 in 10.0 mi SSE 6.9 mph - N/A   Clear
4:55 PM 33.8 °F 29.6 °F 28.4 °F 81% 30.01 in 10.0 mi SSE 4.6 mph - N/A   Clear
5:14 PM 33.8 °F 29.6 °F 28.4 °F 81% 30.01 in 10.0 mi SSE 4.6 mph - N/A   Clear
5:34 PM 30.2 °F 26.7 °F 26.6 °F 86% 30.00 in 7.0 mi South 3.5 mph - N/A   Clear
5:54 PM 32.0 °F 26.4 °F 26.6 °F 80% 30.00 in 10.0 mi South 5.8 mph - N/A   Clear
6:14 PM 30.2 °F 22.6 °F 26.6 °F 86% 30.00 in 7.0 mi South 8.1 mph - N/A   Clear
6:35 PM 30.2 °F 23.4 °F 26.6 °F 86% 30.00 in 7.0 mi SSW 6.9 mph - N/A   Clear
6:54 PM 30.2 °F 23.4 °F 26.6 °F 86% 29.99 in 7.0 mi South 6.9 mph - N/A   Clear
7:14 PM 32.0 °F 24.8 °F 26.6 °F 80% 29.98 in 7.0 mi South 8.1 mph - N/A   Clear
7:35 PM 30.2 °F 22.6 °F 26.6 °F 86% 29.98 in 7.0 mi South 8.1 mph - N/A   Clear
7:54 PM 32.0 °F 24.2 °F 28.4 °F 87% 29.97 in 7.0 mi South 9.2 mph - N/A   Clear
8:35 PM 32.0 °F 24.2 °F 26.6 °F 80% 29.96 in 7.0 mi South 9.2 mph - N/A   Clear
8:54 PM 32.0 °F 23.6 °F 28.4 °F 87% 29.96 in 7.0 mi South 10.4 mph - N/A   Clear
9:14 PM 33.8 °F 25.3 °F 28.4 °F 81% 29.95 in 10.0 mi SSW 11.5 mph - N/A   Clear
9:35 PM 37.4 °F 28.5 °F 30.2 °F 75% 29.95 in 10.0 mi SSW 15.0 mph - N/A   Clear
9:54 PM 35.6 °F 27.1 °F 30.2 °F 81% 29.95 in 10.0 mi SSW 12.7 mph - N/A   Clear
10:14 PM 35.6 °F 27.1 °F 30.2 °F 81% 29.95 in 10.0 mi SW 12.7 mph 18.4 mph N/A   Clear
10:34 PM 35.6 °F 26.2 °F 30.2 °F 81% 29.94 in 10.0 mi SSW 15.0 mph - N/A   Clear
10:54 PM 35.6 °F 28.0 °F 30.2 °F 81% 29.96 in 10.0 mi SW 10.4 mph - N/A   Clear
11:03 PM 35.6 °F 29.2 °F 30.2 °F 81% 29.96 in 10.0 mi SW 8.1 mph - N/A   Clear
11:38 PM 33.8 °F 26.4 °F 28.4 °F 81% 29.96 in 10.0 mi SW 9.2 mph - N/A   Clear
11:55 PM 35.6 °F 28.6 °F 30.2 °F 81% 29.96 in 10.0 mi SSW 9.2 mph - N/A   Mostly Cloudy